Weather History for EGVN - January, 2014

Change the Weather History Date:

Monday, January 27, 2014

  Actual Average Record
Temperature  
Mean Temperature 40 °F -  
Max Temperature 46 °F 45 °F 55 °F (2002)
Min Temperature 34 °F 34 °F 23 °F (2000)
Degree Days  
Heating Degree Days 25    
Moisture  
Dew Point 35 °F    
Average Humidity 81    
Maximum Humidity 93    
Minimum Humidity 64    
Precipitation  
Precipitation 0.04 in - - ()
Sea Level Pressure  
Sea Level Pressure 29.18 in    
Wind  
Wind Speed 8 mph ()    
Max Wind Speed 13 mph    
Max Gust Speed 24 mph    
Visibility 11.0 miles    
Events Rain    
Averages and records for this station are not official NWS values.
T = Trace of Precipitation, MM = Missing Value Source: Averaged Metar Reports

Daily Weather History Graph

Daily Weather History Graph

Search for Another Location

Airport or City:

Trip Planner

Search our weather history database for the weather conditions in past years. The results will help you decide how hot, cold, wet, or windy it might be!

Date:

Astronomy

Jan. 27, 2014 Rise Set
Actual Time 7:52 AM GMT 4:45 PM GMT
Civil Twilight 7:15 AM GMT 5:22 PM GMT
Nautical Twilight 6:34 AM GMT 6:03 PM GMT
Astronomical Twilight 5:55 AM GMT 6:43 PM GMT
Moon 4:24 AM GMT (1/27) 1:11 PM GMT (1/27)
Length of Visible Light 10h 07m
Length of Day
8h 52m
Waning Crescent, 16% of the Moon is Illuminated
Jan 27
Waning Crescent
Jan 30
New
Feb 6
First Quarter
Feb 14
Full
Feb 22
Last Quarter

Hourly Weather History & Observations

Time (GMT) Temp. Windchill Dew Point Humidity Pressure Visibility Wind Dir Wind Speed Gust Speed Precip Events Conditions
12:00 AM 37 °F - 29 °F 64% 29.31 in 18 mi WSW 11.5 mph - -   Scattered Clouds
12:50 AM 37.4 °F 32.8 °F 30.2 °F 75% 29.27 in - SW 5.8 mph - N/A   Clear
1:00 AM 36 °F - 30 °F 70% 29.31 in 19 mi SW 5.8 mph - -  
1:50 AM 37.4 °F 30.8 °F 30.2 °F 75% 29.27 in 6.2 mi SW 9.2 mph - N/A   Scattered Clouds
2:00 AM 36 °F - 30 °F 73% 29.29 in 19 mi SW 9.2 mph - -   Scattered Clouds
2:50 AM 35.6 °F 29.2 °F 32.0 °F 87% 29.24 in - SW 8.1 mph - N/A   Clear
3:00 AM 35 °F - 31 °F 81% 29.27 in 19 mi SW 8.1 mph - -   Scattered Clouds
3:50 AM 35.6 °F 28.6 °F 32.0 °F 87% 29.24 in - SSW 9.2 mph - N/A   Clear
4:00 AM 35 °F - 31 °F 80% 29.25 in 19 mi SSW 9.2 mph - -   Scattered Clouds
4:50 AM 35.6 °F 28.0 °F 32.0 °F 87% 29.21 in 6.2 mi SW 10.4 mph - N/A Rain Light Rain
5:00 AM 36 °F - 33 °F 82% 29.23 in 16 mi SW 10.4 mph - - Rain Light Rain
5:50 AM 35.6 °F 28.0 °F 33.8 °F 93% 29.18 in 6.2 mi SW 10.4 mph - N/A   Scattered Clouds
6:00 AM 36 °F - 33 °F 86% 29.22 in 16 mi SW 10.4 mph - - Rain Light Rain
6:50 AM 37.4 °F 30.8 °F 33.8 °F 87% 29.18 in 6.2 mi SW 9.2 mph - N/A   Mostly Cloudy
7:00 AM 37 °F - 34 °F 84% 29.21 in 16 mi SW 9.2 mph - -   Partly Cloudy
7:50 AM 37.4 °F 32.1 °F 35.6 °F 93% 29.18 in 6.2 mi SW 6.9 mph - N/A   Mostly Cloudy
8:00 AM 38 °F - 35 °F 83% 29.20 in 16 mi SW 6.9 mph - -   Scattered Clouds
8:50 AM 39.2 °F 33.6 °F 35.6 °F 87% 29.18 in 6.2 mi SW 8.1 mph - N/A   Mostly Cloudy
9:00 AM 38 °F - 35 °F 85% 29.20 in 16 mi SW 8.1 mph - -   Scattered Clouds
9:50 AM 41.0 °F 35.8 °F 35.6 °F 81% 29.15 in - SW 8.1 mph - N/A   Clear
10:00 AM 42 °F - 35 °F 70% 29.18 in 17 mi SW 8.1 mph - -   Scattered Clouds
10:50 AM 44.6 °F 40.2 °F 37.4 °F 76% 29.18 in 6.2 mi SW 8.1 mph - N/A   Mostly Cloudy
11:00 AM 44 °F - 36 °F 66% 29.19 in 17 mi SW 8.1 mph - -   Mostly Cloudy
11:50 AM 44.6 °F 39.2 °F 37.4 °F 76% 29.15 in 6.2 mi SW 10.4 mph - N/A   Mostly Cloudy
12:00 PM 45 °F - 37 °F 64% 29.17 in 17 mi SW 10.4 mph - -   Mostly Cloudy
12:50 PM 44.6 °F 38.4 °F 39.2 °F 81% 29.15 in 6.2 mi SSW 12.7 mph 24.2 mph N/A   Scattered Clouds
1:00 PM 44 °F - 39 °F 75% 29.16 in 12 mi SSW 12.7 mph - - Rain Light Rain Showers
1:50 PM 42.8 °F 37.0 °F 37.4 °F 81% 29.15 in 6.2 mi SW 10.4 mph - N/A   Partly Cloudy
2:00 PM 43 °F - 37 °F 72% 29.16 in 16 mi SW 10.4 mph - -   Scattered Clouds
2:50 PM 41.0 °F 34.7 °F 37.4 °F 87% 29.12 in 6.2 mi SSW 10.4 mph - N/A Rain Light Rain Showers
3:00 PM 41 °F - 38 °F 83% 29.16 in 12 mi SSW 10.4 mph - - Rain Light Rain Showers
3:50 PM 41.0 °F 35.2 °F 37.4 °F 87% 29.15 in 3.1 mi WSW 9.2 mph - N/A Rain Rain Showers
4:00 PM 42 °F - 38 °F 81% 29.16 in 3 mi WSW 9.2 mph - - Rain Heavy Rain Showers
4:15 PM 41.0 °F 35.2 °F 35.6 °F 81% 29.12 in 6.2 mi WSW 9.2 mph - N/A   Scattered Clouds
4:50 PM 41.0 °F 36.4 °F 37.4 °F 87% 29.12 in 6.2 mi SW 6.9 mph - N/A   Partly Cloudy
5:00 PM 41 °F - 38 °F 84% 29.15 in 16 mi SW 6.9 mph - - Rain Light Rain Showers
5:50 PM 41.0 °F 37.1 °F 37.4 °F 87% 29.12 in 6.2 mi SW 5.8 mph - N/A   Partly Cloudy
6:00 PM 41 °F - 37 °F 81% 29.15 in 19 mi SW 5.8 mph - - Rain Light Rain Showers
6:50 PM 41.0 °F 35.8 °F 35.6 °F 81% 29.12 in 6.2 mi SW 8.1 mph - N/A   Scattered Clouds
7:00 PM 40 °F - 36 °F 80% 29.15 in 19 mi SW 8.1 mph - -   Scattered Clouds
7:50 PM 41.0 °F 36.4 °F 37.4 °F 87% 29.12 in 6.2 mi SSW 6.9 mph - N/A Rain Light Rain Showers
8:51 PM 41.0 °F 35.8 °F 37.4 °F 87% 29.12 in 6.2 mi SSW 8.1 mph - N/A   Mostly Cloudy
9:00 PM 41 °F - 37 °F 81% 29.14 in 14 mi SSW 8.1 mph - - Rain Rain
9:50 PM 41.0 °F 37.1 °F 37.4 °F 87% 29.12 in 6.2 mi SSW 5.8 mph - N/A Rain Light Rain Showers
10:53 PM 41.0 °F 35.8 °F 39.2 °F 93% 29.09 in 6.2 mi SSW 8.1 mph - N/A   Mostly Cloudy
11:50 PM 41.0 °F 35.2 °F 39.2 °F 93% 29.09 in 6.2 mi SSW 9.2 mph - N/A Rain Light Rain Showers